Weather History for Meadville, PA

Change the Weather History Date:

Friday, February 15, 2013

  Actual Average Record
Temperature  
Mean Temperature 29 °F -  
Max Temperature 35 °F 34 °F 60 °F (1949)
Min Temperature 21 °F 14 °F -12 °F (1979)
Degree Days  
Heating Degree Days 36    
Moisture  
Dew Point 23 °F    
Average Humidity 76    
Maximum Humidity 93    
Minimum Humidity 64    
Precipitation  
Precipitation 0.00 in - - ()
Sea Level Pressure  
Sea Level Pressure 29.98 in    
Wind  
Wind Speed 8 mph (WNW)    
Max Wind Speed 13 mph    
Max Gust Speed 21 mph    
Visibility 8 miles    
Events Snow    
Averages and records for this station are not official NWS values.
T = Trace of Precipitation, MM = Missing Value Source: NWS Daily Summary

Daily Weather History Graph

Daily Weather History Graph

Search for Another Location

Airport:

Trip Planner

Search our weather history database for the weather conditions in past years. The results will help you decide how hot, cold, wet, or windy it might be!

Date:

Astronomy

Feb. 15, 2013 Rise Set
Actual Time 7:15 AM EST 5:54 PM EST
Civil Twilight 6:47 AM EST 6:23 PM EST
Nautical Twilight 6:14 AM EST 6:55 PM EST
Astronomical Twilight 5:42 AM EST 7:27 PM EST
Moon 9:45 AM EST (2/15) 11:59 PM EST (2/15)
Length of Visible Light 11h 35m
Length of Day
10h 38m
Waxing Crescent, 30% of the Moon is Illuminated
Feb 15
Waxing Crescent
Feb 17
First Quarter
Feb 25
Full
Mar 4
Last Quarter
Mar 11
New

Hourly Weather History & Observations

Time (EST) Temp. Windchill Dew Point Humidity Pressure Visibility Wind Dir Wind Speed Gust Speed Precip Events Conditions
12:53 AM 35.1 °F 27.9 °F 26.1 °F 70% 29.88 in 10.0 mi SW 9.2 mph - N/A   Overcast
1:07 AM 33.8 °F 27.7 °F 26.6 °F 75% 29.84 in 10.0 mi SW 6.9 mph - N/A   Overcast
1:26 AM 35.6 °F 27.1 °F 26.6 °F 70% 29.84 in 10.0 mi WSW 12.7 mph 17.3 mph N/A   Overcast
1:50 AM 33.8 °F 25.8 °F 26.6 °F 75% 29.84 in 10.0 mi WSW 10.4 mph - N/A   Overcast
1:53 AM 34.0 °F 25.5 °F 26.1 °F 73% 29.88 in 10.0 mi WSW 11.5 mph 18.4 mph N/A   Overcast
2:19 AM 33.8 °F 25.8 °F 24.8 °F 70% 29.85 in 10.0 mi West 10.4 mph 20.7 mph N/A   Overcast
2:53 AM 34.0 °F 25.0 °F 24.1 °F 67% 29.89 in 10.0 mi WSW 12.7 mph 19.6 mph N/A   Overcast
3:53 AM 33.1 °F 27.7 °F 23.0 °F 66% 29.91 in 10.0 mi WSW 5.8 mph - N/A   Overcast
4:53 AM 32.0 °F 24.8 °F 21.9 °F 66% 29.92 in 10.0 mi WSW 8.1 mph - N/A   Overcast
5:53 AM 32.0 °F 23.6 °F 21.9 °F 66% 29.94 in 10.0 mi WSW 10.4 mph - N/A   Overcast
6:53 AM 30.9 °F 25.2 °F 21.9 °F 69% 29.96 in 10.0 mi WSW 5.8 mph - N/A   Overcast
7:53 AM 30.9 °F 22.8 °F 23.0 °F 72% 29.98 in 10.0 mi WSW 9.2 mph - N/A   Overcast
8:53 AM 30.9 °F 23.5 °F 24.1 °F 76% 30.01 in 10.0 mi WSW 8.1 mph - N/A   Overcast
9:15 AM 30.2 °F 22.6 °F 24.8 °F 80% 29.97 in 10.0 mi WSW 8.1 mph - N/A   Overcast
9:36 AM 32.0 °F 24.8 °F 24.8 °F 75% 29.97 in 10.0 mi West 8.1 mph - N/A   Overcast
9:53 AM 32.0 °F 24.8 °F 24.1 °F 73% 30.01 in 10.0 mi WSW 8.1 mph - N/A   Overcast
10:53 AM 32.0 °F 23.6 °F 25.0 °F 75% 30.02 in 10.0 mi WSW 10.4 mph - N/A   Overcast
11:46 AM 33.8 °F 25.8 °F 24.8 °F 70% 29.98 in 10.0 mi West 10.4 mph - N/A   Mostly Cloudy
11:53 AM 33.1 °F 25.5 °F 24.1 °F 70% 30.01 in 10.0 mi West 9.2 mph - N/A   Mostly Cloudy
12:53 PM 32.0 °F 24.8 °F 25.0 °F 75% 30.01 in 4.0 mi WNW 8.1 mph - 0.00 in Snow Light Snow
1:04 PM 30.2 °F 23.4 °F 26.6 °F 86% 29.96 in 2.5 mi WNW 6.9 mph - 0.00 in Snow Light Snow
1:14 PM 30.2 °F 21.9 °F 26.6 °F 86% 29.96 in 1.8 mi West 9.2 mph - 0.00 in Snow Light Snow
1:21 PM 30.2 °F 21.3 °F 26.6 °F 86% 29.96 in 3.0 mi West 10.4 mph - 0.00 in Snow Light Snow
1:29 PM 30.2 °F 21.3 °F 26.6 °F 86% 29.96 in 2.0 mi West 10.4 mph - 0.00 in Snow Light Snow
1:31 PM 30.2 °F 21.9 °F 26.6 °F 86% 29.96 in 1.5 mi West 9.2 mph - 0.00 in Snow Light Snow
1:41 PM 30.2 °F 22.6 °F 26.6 °F 86% 29.97 in 1.2 mi West 8.1 mph - 0.00 in Snow Light Snow
1:53 PM 30.0 °F 24.1 °F 25.0 °F 82% 30.01 in 1.5 mi WNW 5.8 mph - 0.00 in Snow Light Snow
2:00 PM 28.4 °F 20.4 °F 26.6 °F 93% 29.97 in 1.8 mi NW 8.1 mph - 0.00 in Snow Light Snow
2:27 PM 28.4 °F 22.2 °F 26.6 °F 93% 29.96 in 3.0 mi Variable 5.8 mph - 0.00 in Snow Light Snow
2:53 PM 30.0 °F 24.1 °F 24.1 °F 79% 30.01 in 10.0 mi West 5.8 mph - 0.00 in   Overcast
3:05 PM 30.2 °F 24.3 °F 23.0 °F 75% 29.96 in 10.0 mi West 5.8 mph - N/A   Overcast
3:53 PM 30.9 °F 24.3 °F 21.9 °F 69% 30.01 in 10.0 mi Variable 6.9 mph - N/A   Overcast
4:26 PM 30.2 °F 24.3 °F 19.4 °F 64% 29.97 in 10.0 mi Variable 5.8 mph - N/A   Overcast
4:53 PM 30.9 °F 24.3 °F 19.9 °F 64% 30.03 in 10.0 mi NW 6.9 mph - N/A   Overcast
5:35 PM 28.4 °F 21.2 °F 21.2 °F 74% 30.00 in 2.0 mi NW 6.9 mph - 0.00 in Snow Light Snow
5:37 PM 28.4 °F 21.2 °F 21.2 °F 74% 30.00 in 1.8 mi WNW 6.9 mph - 0.00 in Snow Light Snow
5:53 PM 27.0 °F 19.5 °F 21.9 °F 81% 30.05 in 1.2 mi NNW 6.9 mph - 0.00 in Snow Light Snow
6:08 PM 26.6 °F 18.2 °F 21.2 °F 80% 30.01 in 2.5 mi NNW 8.1 mph - 0.00 in Snow Light Snow
6:13 PM 26.6 °F 21.2 °F 21.2 °F 80% 30.01 in 3.0 mi NNW 4.6 mph - 0.00 in Snow Light Snow
6:37 PM 26.6 °F 21.2 °F 19.4 °F 74% 30.01 in 10.0 mi North 4.6 mph - 0.00 in   Overcast
6:44 PM 26.6 °F 19.1 °F 19.4 °F 74% 30.01 in 10.0 mi NW 6.9 mph - 0.00 in   Mostly Cloudy
6:53 PM 26.1 °F 20.5 °F 19.9 °F 78% 30.06 in 10.0 mi NW 4.6 mph - 0.00 in   Mostly Cloudy
7:01 PM 26.6 °F 21.2 °F 19.4 °F 74% 30.02 in 10.0 mi NW 4.6 mph - N/A   Overcast
7:53 PM 25.0 °F 20.7 °F 17.1 °F 72% 30.07 in 10.0 mi NW 3.5 mph - N/A   Overcast
8:53 PM 24.1 °F - 17.1 °F 75% 30.08 in 10.0 mi Calm Calm - N/A   Overcast
9:53 PM 24.1 °F 17.0 °F 19.0 °F 81% 30.08 in 7.0 mi NNW 5.8 mph - 0.00 in Snow Light Snow
10:42 PM 23.0 °F 17.0 °F 17.6 °F 80% 30.03 in 10.0 mi North 4.6 mph - 0.00 in   Overcast
10:53 PM 23.0 °F 17.0 °F 17.1 °F 78% 30.08 in 10.0 mi North 4.6 mph - 0.00 in   Overcast
11:53 PM 21.9 °F 14.5 °F 16.0 °F 78% 30.07 in 10.0 mi NNE 5.8 mph - N/A   Overcast